Location: Arroyo Grande
(40.2671°N, 4.2512°W)
Time: 18:42:38
(UTC+00:00)

Cosmos 1340 - Pass Details

Date: 03 February 2023
Orbit: 479 x 484 km, 81.2° (Epoch: 21 March)

Event Time Altitude Azimuth Distance (km) Brightness Sun altitude
Rises 18:38:23 0° 3° (N) 2,551 6.1 -11.9°
Reaches altitude 10° 18:40:47 10° 18° (NNE) 1,669 5.0 -12.4°
Maximum altitude 18:43:49 24° 74° (ENE) 1,036 3.6 -13.0°
Enters shadow 18:45:33 17° 114° (ESE) 1,279 4.2 -13.3°
